Time,TemperatureF,DewpointF,PressureIn,WindDirection,WindDirectionDegrees,WindSpeedMPH,WindSpeedGustMPH,Humidity,HourlyPrecipIn,Conditions,Clouds,dailyrainin,SoftwareType,DateUTC
2013-02-02 00:00:00,50.5,46.7,30.24,SE,145,1.8,0.0,87,0.00,,,0.00,WeatherCatV1.15B25,2013-02-02 08:00:00,
2013-02-02 00:05:00,41.9,40.0,30.55,East,90,0.0,0.0,93,0.00,,,0.00,LWC V2.11 B50,2013-02-02 08:05:00,
2013-02-02 00:06:00,41.9,40.0,30.55,East,90,0.0,0.0,93,0.00,,,0.00,LWC V2.11 B50,2013-02-02 08:06:00,
2013-02-02 00:10:00,50.5,46.7,30.24,SE,145,1.8,0.0,87,0.00,,,0.00,WeatherCatV1.15B25,2013-02-02 08:10:00,
2013-02-02 00:11:00,41.9,40.0,30.56,SSE,157,0.0,0.0,93,0.00,,,0.00,LWC V2.11 B50,2013-02-02 08:11:00,
2013-02-02 00:15:00,50.5,46.7,30.24,SE,145,1.8,0.0,87,0.00,,,0.00,WeatherCatV1.15B25,2013-02-02 08:15:00,
2013-02-02 00:17:00,41.9,40.0,30.55,SE,135,0.0,0.0,93,0.00,,,0.00,LWC V2.11 B50,2013-02-02 08:17:00,
2013-02-02 00:20:00,50.5,46.7,30.24,SE,145,1.8,0.0,87,0.00,,,0.00,WeatherCatV1.15B25,2013-02-02 08:20:00,
2013-02-02 00:22:00,41.9,40.0,30.55,ENE,67,0.0,0.0,93,0.00,,,0.00,LWC V2.11 B50,2013-02-02 08:22:00,
2013-02-02 00:25:00,50.5,46.7,30.24,SE,145,1.8,0.0,87,0.00,,,0.00,WeatherCatV1.15B25,2013-02-02 08:25:00,
2013-02-02 00:27:00,41.9,40.0,30.55,East,90,0.0,0.0,93,0.00,,,0.00,LWC V2.11 B50,2013-02-02 08:27:00,
2013-02-02 00:30:00,50.5,46.7,30.24,SE,145,1.8,0.0,87,0.00,,,0.00,WeatherCatV1.15B25,2013-02-02 08:30:00,
2013-02-02 00:32:00,41.9,40.0,30.55,SSE,157,0.0,0.0,93,0.00,,,0.00,LWC V2.11 B50,2013-02-02 08:32:00,
2013-02-02 00:35:00,50.5,46.7,30.24,SE,145,1.8,0.0,87,0.00,,,0.00,WeatherCatV1.15B25,2013-02-02 08:35:00,
2013-02-02 00:37:00,41.9,40.0,30.55,ESE,112,0.0,0.0,93,0.00,,,0.00,LWC V2.11 B50,2013-02-02 08:37:00,
2013-02-02 00:40:00,50.5,46.7,30.24,SE,145,1.8,0.0,87,0.00,,,0.00,WeatherCatV1.15B25,2013-02-02 08:40:00,
2013-02-02 00:42:00,41.7,39.8,30.55,NNE,22,0.0,0.0,93,0.00,,,0.00,LWC V2.11 B50,2013-02-02 08:42:00,
2013-02-02 00:45:00,50.5,46.7,30.24,SE,145,1.8,0.0,87,0.00,,,0.00,WeatherCatV1.15B25,2013-02-02 08:45:00,
2013-02-02 00:47:00,41.7,39.8,30.55,SE,135,0.0,0.0,93,0.00,,,0.00,LWC V2.11 B50,2013-02-02 08:47:00,
2013-02-02 00:50:00,50.5,46.7,30.24,SE,145,1.8,0.0,87,0.00,,,0.00,WeatherCatV1.15B25,2013-02-02 08:50:00,
2013-02-02 00:52:00,41.7,39.8,30.54,SSE,157,0.0,0.0,93,0.00,,,0.00,LWC V2.11 B50,2013-02-02 08:52:00,
2013-02-02 00:55:00,50.5,46.7,30.24,SE,145,1.8,0.0,87,0.00,,,0.00,WeatherCatV1.15B25,2013-02-02 08:55:00,
2013-02-02 00:57:00,41.7,39.8,30.54,NE,45,0.0,0.0,93,0.00,,,0.00,LWC V2.11 B50,2013-02-02 08:57:00,
2013-02-02 01:00:00,50.5,46.7,30.24,SE,145,1.8,0.0,87,0.00,,,0.00,WeatherCatV1.15B25,2013-02-02 09:00:00,
2013-02-02 01:02:00,41.7,39.8,30.55,North,0,0.0,0.0,93,0.00,,,0.00,LWC V2.11 B50,2013-02-02 09:02:00,
2013-02-02 01:05:00,50.5,46.7,30.24,SE,145,1.8,0.0,87,0.00,,,0.00,WeatherCatV1.15B25,2013-02-02 09:05:00,
2013-02-02 01:07:00,41.7,39.8,30.55,East,90,0.0,0.0,93,0.00,,,0.00,LWC V2.11 B50,2013-02-02 09:07:00,
2013-02-02 01:10:00,50.5,46.7,30.24,SE,145,1.8,0.0,87,0.00,,,0.00,WeatherCatV1.15B25,2013-02-02 09:10:00,
2013-02-02 01:12:00,41.9,40.0,30.55,ENE,67,0.0,0.0,93,0.00,,,0.00,LWC V2.11 B50,2013-02-02 09:12:00,
2013-02-02 01:15:00,50.5,46.7,30.24,SE,145,1.8,0.0,87,0.00,,,0.00,WeatherCatV1.15B25,2013-02-02 09:15:00,
2013-02-02 01:17:00,41.9,40.0,30.55,ESE,112,0.0,0.0,93,0.00,,,0.00,LWC V2.11 B50,2013-02-02 09:17:00,
2013-02-02 01:20:00,50.5,46.7,30.24,SE,145,1.8,0.0,87,0.00,,,0.00,WeatherCatV1.15B25,2013-02-02 09:20:00,
2013-02-02 01:22:00,41.9,40.0,30.55,NE,45,0.0,0.0,93,0.00,,,0.00,LWC V2.11 B50,2013-02-02 09:22:00,
2013-02-02 01:25:00,50.5,46.7,30.24,SE,145,1.8,0.0,87,0.00,,,0.00,WeatherCatV1.15B25,2013-02-02 09:25:00,
2013-02-02 01:27:00,41.9,40.0,30.55,NNE,22,0.0,0.0,93,0.00,,,0.00,LWC V2.11 B50,2013-02-02 09:27:00,
2013-02-02 01:30:00,50.5,46.7,30.24,SE,145,1.8,0.0,87,0.00,,,0.00,WeatherCatV1.15B25,2013-02-02 09:30:00,
2013-02-02 01:33:00,41.9,40.0,30.55,ENE,67,0.0,0.0,93,0.00,,,0.00,LWC V2.11 B50,2013-02-02 09:33:00,
2013-02-02 01:35:00,50.5,46.7,30.24,SE,145,1.8,0.0,87,0.00,,,0.00,WeatherCatV1.15B25,2013-02-02 09:35:00,
2013-02-02 01:38:00,41.9,40.0,30.55,ENE,67,0.0,0.0,93,0.00,,,0.00,LWC V2.11 B50,2013-02-02 09:38:00,
2013-02-02 01:40:00,50.5,46.7,30.24,SE,145,1.8,0.0,87,0.00,,,0.00,WeatherCatV1.15B25,2013-02-02 09:40:00,
2013-02-02 01:43:00,41.9,40.0,30.55,ENE,67,0.0,0.0,93,0.00,,,0.00,LWC V2.11 B50,2013-02-02 09:43:00,
2013-02-02 01:45:00,50.5,46.7,30.24,SE,145,1.8,0.0,87,0.00,,,0.00,WeatherCatV1.15B25,2013-02-02 09:45:00,
2013-02-02 01:48:00,41.7,39.8,30.56,NE,45,0.0,0.0,93,0.00,,,0.00,LWC V2.11 B50,2013-02-02 09:48:00,
2013-02-02 01:50:00,50.5,46.7,30.24,SE,145,1.8,0.0,87,0.00,,,0.00,WeatherCatV1.15B25,2013-02-02 09:50:00,
2013-02-02 01:53:00,41.9,40.3,30.55,SE,135,0.0,0.0,94,0.00,,,0.00,LWC V2.11 B50,2013-02-02 09:53:00,
2013-02-02 01:55:00,50.5,46.7,30.24,SE,145,1.8,0.0,87,0.00,,,0.00,WeatherCatV1.15B25,2013-02-02 09:55:00,
2013-02-02 01:58:00,41.9,40.3,30.55,NE,45,0.0,0.0,94,0.00,,,0.00,LWC V2.11 B50,2013-02-02 09:58:00,
2013-02-02 02:00:00,50.5,46.7,30.24,SE,145,1.8,0.0,87,0.00,,,0.00,WeatherCatV1.15B25,2013-02-02 10:00:00,
2013-02-02 02:03:00,41.7,40.1,30.55,ENE,67,0.0,0.0,94,0.00,,,0.00,LWC V2.11 B50,2013-02-02 10:03:00,
2013-02-02 02:05:00,50.5,46.7,30.24,SE,145,1.8,0.0,87,0.00,,,0.00,WeatherCatV1.15B25,2013-02-02 10:05:00,
2013-02-02 02:08:00,41.7,40.1,30.55,ENE,67,0.0,0.0,94,0.00,,,0.00,LWC V2.11 B50,2013-02-02 10:08:00,
2013-02-02 02:10:00,50.5,46.7,30.24,SE,145,1.8,0.0,87,0.00,,,0.00,WeatherCatV1.15B25,2013-02-02 10:10:00,
2013-02-02 02:13:00,41.9,40.3,30.55,ESE,112,0.0,0.0,94,0.00,,,0.00,LWC V2.11 B50,2013-02-02 10:13:00,
2013-02-02 02:15:00,50.5,46.7,30.24,SE,145,1.8,0.0,87,0.00,,,0.00,WeatherCatV1.15B25,2013-02-02 10:15:00,
2013-02-02 02:18:00,41.9,40.3,30.56,North,0,0.0,0.0,94,0.00,,,0.00,LWC V2.11 B50,2013-02-02 10:18:00,
2013-02-02 02:20:00,50.5,46.7,30.24,SE,145,1.8,0.0,87,0.00,,,0.00,WeatherCatV1.15B25,2013-02-02 10:20:00,
2013-02-02 02:23:00,41.9,40.3,30.56,ENE,67,0.0,0.0,94,0.00,,,0.00,LWC V2.11 B50,2013-02-02 10:23:00,
2013-02-02 02:25:00,50.5,46.7,30.24,SE,145,1.8,0.0,87,0.00,,,0.00,WeatherCatV1.15B25,2013-02-02 10:25:00,
2013-02-02 02:28:00,42.1,40.5,30.56,ESE,112,0.0,0.0,94,0.00,,,0.00,LWC V2.11 B50,2013-02-02 10:28:00,
2013-02-02 02:30:00,50.5,46.7,30.24,SE,145,1.8,0.0,87,0.00,,,0.00,WeatherCatV1.15B25,2013-02-02 10:30:00,
2013-02-02 02:33:00,42.1,40.5,30.56,ENE,67,0.0,0.0,94,0.00,,,0.00,LWC V2.11 B50,2013-02-02 10:33:00,
2013-02-02 02:35:00,50.5,46.7,30.24,SE,145,1.8,0.0,87,0.00,,,0.00,WeatherCatV1.15B25,2013-02-02 10:35:00,
2013-02-02 02:38:00,41.9,40.3,30.56,NE,45,0.0,0.0,94,0.00,,,0.00,LWC V2.11 B50,2013-02-02 10:38:00,
2013-02-02 02:40:00,50.5,46.7,30.24,SE,145,1.8,0.0,87,0.00,,,0.00,WeatherCatV1.15B25,2013-02-02 10:40:00,
2013-02-02 02:43:00,41.9,40.3,30.55,ENE,67,0.0,0.0,94,0.00,,,0.00,LWC V2.11 B50,2013-02-02 10:43:00,
2013-02-02 02:45:00,50.5,46.7,30.24,SE,145,1.8,0.0,87,0.00,,,0.00,WeatherCatV1.15B25,2013-02-02 10:45:00,
2013-02-02 02:49:00,41.9,40.3,30.55,ENE,67,0.0,0.0,94,0.00,,,0.00,LWC V2.11 B50,2013-02-02 10:49:00,
2013-02-02 02:50:00,50.5,46.7,30.24,SE,145,1.8,0.0,87,0.00,,,0.00,WeatherCatV1.15B25,2013-02-02 10:50:00,
2013-02-02 02:54:00,41.9,40.3,30.55,NE,45,0.0,0.0,94,0.00,,,0.00,LWC V2.11 B50,2013-02-02 10:54:00,
2013-02-02 02:55:00,50.5,46.7,30.24,SE,145,1.8,0.0,87,0.00,,,0.00,WeatherCatV1.15B25,2013-02-02 10:55:00,
2013-02-02 02:59:00,41.9,40.3,30.55,ESE,112,0.0,0.0,94,0.00,,,0.00,LWC V2.11 B50,2013-02-02 10:59:00,
2013-02-02 03:00:00,50.5,46.7,30.24,SE,145,1.8,0.0,87,0.00,,,0.00,WeatherCatV1.15B25,2013-02-02 11:00:00,
2013-02-02 03:04:00,41.9,40.3,30.55,ESE,112,0.0,0.0,94,0.00,,,0.00,LWC V2.11 B50,2013-02-02 11:04:00,
2013-02-02 03:05:00,50.5,46.7,30.24,SE,145,1.8,0.0,87,0.00,,,0.00,WeatherCatV1.15B25,2013-02-02 11:05:00,
2013-02-02 03:09:00,41.9,40.3,30.54,SE,135,0.0,0.0,94,0.00,,,0.00,LWC V2.11 B50,2013-02-02 11:09:00,
2013-02-02 03:10:00,50.5,46.7,30.24,SE,145,1.8,0.0,87,0.00,,,0.00,WeatherCatV1.15B25,2013-02-02 11:10:00,
2013-02-02 03:14:00,41.9,40.3,30.54,ENE,67,0.0,0.0,94,0.00,,,0.00,LWC V2.11 B50,2013-02-02 11:14:00,
2013-02-02 03:15:00,50.5,46.7,30.24,SE,145,1.8,0.0,87,0.00,,,0.00,WeatherCatV1.15B25,2013-02-02 11:15:00,
2013-02-02 03:19:00,41.7,40.1,30.55,ESE,112,0.0,0.0,94,0.00,,,0.00,LWC V2.11 B50,2013-02-02 11:19:00,
2013-02-02 03:20:00,50.5,46.7,30.24,SE,145,1.8,0.0,87,0.00,,,0.00,WeatherCatV1.15B25,2013-02-02 11:20:00,
2013-02-02 03:24:00,41.7,40.1,30.55,NNE,22,0.0,0.0,94,0.00,,,0.00,LWC V2.11 B50,2013-02-02 11:24:00,
2013-02-02 03:25:00,50.5,46.7,30.24,SE,145,1.8,0.0,87,0.00,,,0.00,WeatherCatV1.15B25,2013-02-02 11:25:00,
2013-02-02 03:29:00,41.7,40.1,30.54,NE,45,0.0,0.0,94,0.00,,,0.00,LWC V2.11 B50,2013-02-02 11:29:00,
2013-02-02 03:30:00,50.5,46.7,30.24,SE,145,1.8,0.0,87,0.00,,,0.00,WeatherCatV1.15B25,2013-02-02 11:30:00,
2013-02-02 03:34:00,41.7,40.1,30.54,ENE,67,0.0,0.0,94,0.00,,,0.00,LWC V2.11 B50,2013-02-02 11:34:00,
2013-02-02 03:35:00,50.5,46.7,30.24,SE,145,1.8,0.0,87,0.00,,,0.00,WeatherCatV1.15B25,2013-02-02 11:35:00,
2013-02-02 03:39:00,41.5,39.9,30.54,NNE,22,0.0,0.0,94,0.00,,,0.00,LWC V2.11 B50,2013-02-02 11:39:00,
2013-02-02 03:40:00,50.5,46.7,30.24,SE,145,1.8,0.0,87,0.00,,,0.00,WeatherCatV1.15B25,2013-02-02 11:40:00,
2013-02-02 03:44:00,41.5,39.9,30.54,ENE,67,0.0,0.0,94,0.00,,,0.00,LWC V2.11 B50,2013-02-02 11:44:00,
2013-02-02 03:45:00,50.5,46.7,30.24,SE,145,1.8,0.0,87,0.00,,,0.00,WeatherCatV1.15B25,2013-02-02 11:45:00,
2013-02-02 03:49:00,41.5,39.9,30.53,SE,135,0.0,0.0,94,0.00,,,0.00,LWC V2.11 B50,2013-02-02 11:49:00,
2013-02-02 03:50:00,50.5,46.7,30.24,SE,145,1.8,0.0,87,0.00,,,0.00,WeatherCatV1.15B25,2013-02-02 11:50:00,
2013-02-02 03:54:00,41.5,39.9,30.53,NE,45,0.0,0.0,94,0.00,,,0.00,LWC V2.11 B50,2013-02-02 11:54:00,
2013-02-02 03:55:00,50.5,46.7,30.24,SE,145,1.8,0.0,87,0.00,,,0.00,WeatherCatV1.15B25,2013-02-02 11:55:00,
2013-02-02 03:59:00,41.5,39.9,30.53,North,0,0.0,0.0,94,0.00,,,0.00,LWC V2.11 B50,2013-02-02 11:59:00,
2013-02-02 04:00:00,50.5,46.7,30.24,SE,145,1.8,0.0,87,0.00,,,0.00,WeatherCatV1.15B25,2013-02-02 12:00:00,
2013-02-02 04:05:00,41.4,39.7,30.53,NE,45,0.0,0.0,94,0.00,,,0.00,LWC V2.11 B50,2013-02-02 12:05:00,
2013-02-02 04:10:00,41.4,39.7,30.53,East,90,0.0,0.0,94,0.00,,,0.00,LWC V2.11 B50,2013-02-02 12:10:00,
2013-02-02 04:15:00,41.2,39.6,30.53,SE,135,0.0,0.0,94,0.00,,,0.00,LWC V2.11 B50,2013-02-02 12:15:00,
2013-02-02 04:20:00,41.2,39.6,30.53,ENE,67,0.0,0.0,94,0.00,,,0.00,LWC V2.11 B50,2013-02-02 12:20:00,
2013-02-02 04:25:00,41.2,39.6,30.53,East,90,0.0,0.0,94,0.00,,,0.00,LWC V2.11 B50,2013-02-02 12:25:00,
2013-02-02 04:30:00,41.2,39.6,30.53,NE,45,0.0,0.0,94,0.00,,,0.00,LWC V2.11 B50,2013-02-02 12:30:00,
2013-02-02 04:35:00,41.0,39.4,30.52,ESE,112,0.0,0.0,94,0.00,,,0.00,LWC V2.11 B50,2013-02-02 12:35:00,
2013-02-02 04:40:00,41.0,39.4,30.52,ENE,67,0.0,0.0,94,0.00,,,0.00,LWC V2.11 B50,2013-02-02 12:40:00,
2013-02-02 04:45:00,41.0,39.4,30.53,SSE,157,0.0,0.0,94,0.00,,,0.00,LWC V2.11 B50,2013-02-02 12:45:00,
2013-02-02 04:50:00,40.8,39.4,30.52,ENE,67,0.0,0.0,94,0.00,,,0.00,LWC V2.11 B50,2013-02-02 12:50:00,
2013-02-02 04:55:00,40.8,39.2,30.52,East,90,0.0,0.0,94,0.00,,,0.00,LWC V2.11 B50,2013-02-02 12:55:00,
2013-02-02 05:00:00,40.8,39.2,30.52,ENE,67,0.0,0.0,94,0.00,,,0.00,LWC V2.11 B50,2013-02-02 13:00:00,
2013-02-02 05:05:00,40.8,39.2,30.52,NE,45,0.0,0.0,94,0.00,,,0.00,LWC V2.11 B50,2013-02-02 13:05:00,
2013-02-02 05:10:00,40.8,39.2,30.52,East,90,0.0,0.0,94,0.00,,,0.00,LWC V2.11 B50,2013-02-02 13:10:00,
2013-02-02 05:15:00,40.8,39.2,30.51,NNE,22,0.0,0.0,94,0.00,,,0.00,LWC V2.11 B50,2013-02-02 13:15:00,
2013-02-02 05:20:00,50.5,46.7,30.24,SE,145,1.8,0.0,87,0.00,,,0.00,WeatherCatV1.15B25,2013-02-02 13:20:00,
2013-02-02 05:21:00,40.8,39.2,30.51,SE,135,0.0,0.0,94,0.00,,,0.00,LWC V2.11 B50,2013-02-02 13:21:00,
2013-02-02 05:25:00,50.5,46.7,30.24,SE,145,1.8,0.0,87,0.00,,,0.00,WeatherCatV1.15B25,2013-02-02 13:25:00,
2013-02-02 05:26:00,40.8,39.2,30.51,NNE,22,0.0,0.0,94,0.00,,,0.00,LWC V2.11 B50,2013-02-02 13:26:00,
2013-02-02 05:30:00,50.5,46.7,30.24,SE,145,1.8,0.0,87,0.00,,,0.00,WeatherCatV1.15B25,2013-02-02 13:30:00,
2013-02-02 05:31:00,40.8,39.2,30.51,SSE,157,0.0,0.0,94,0.00,,,0.00,LWC V2.11 B50,2013-02-02 13:31:00,
2013-02-02 05:35:00,50.5,46.7,30.24,SE,145,1.8,0.0,87,0.00,,,0.00,WeatherCatV1.15B25,2013-02-02 13:35:00,
2013-02-02 05:36:00,40.8,39.2,30.50,ESE,112,0.0,0.0,94,0.00,,,0.00,LWC V2.11 B50,2013-02-02 13:36:00,
2013-02-02 05:40:00,50.5,46.7,30.24,SE,145,1.8,0.0,87,0.00,,,0.00,WeatherCatV1.15B25,2013-02-02 13:40:00,
2013-02-02 05:41:00,40.8,39.2,30.51,ENE,67,0.0,0.0,94,0.00,,,0.00,LWC V2.11 B50,2013-02-02 13:41:00,
2013-02-02 05:45:00,50.5,46.7,30.24,SE,145,1.8,0.0,87,0.00,,,0.00,WeatherCatV1.15B25,2013-02-02 13:45:00,
2013-02-02 05:46:00,40.8,39.2,30.50,North,0,0.0,0.0,94,0.00,,,0.00,LWC V2.11 B50,2013-02-02 13:46:00,
2013-02-02 05:50:00,50.5,46.7,30.24,SE,145,1.8,0.0,87,0.00,,,0.00,WeatherCatV1.15B25,2013-02-02 13:50:00,
2013-02-02 05:51:00,40.8,39.2,30.50,NNE,22,0.0,0.0,94,0.00,,,0.00,LWC V2.11 B50,2013-02-02 13:51:00,
2013-02-02 05:55:00,50.5,46.7,30.24,SE,145,1.8,0.0,87,0.00,,,0.00,WeatherCatV1.15B25,2013-02-02 13:55:00,
2013-02-02 05:56:00,40.8,39.2,30.50,NE,45,0.0,0.0,94,0.00,,,0.00,LWC V2.11 B50,2013-02-02 13:56:00,
2013-02-02 06:00:00,50.5,46.7,30.24,SE,145,1.8,0.0,87,0.00,,,0.00,WeatherCatV1.15B25,2013-02-02 14:00:00,
2013-02-02 06:01:00,40.8,39.2,30.49,NE,45,0.0,0.0,94,0.00,,,0.00,LWC V2.11 B50,2013-02-02 14:01:00,
2013-02-02 06:05:00,50.5,46.7,30.24,SE,145,1.8,0.0,87,0.00,,,0.00,WeatherCatV1.15B25,2013-02-02 14:05:00,
2013-02-02 06:06:00,40.8,39.2,30.49,NNW,337,0.0,0.0,94,0.00,,,0.00,LWC V2.11 B50,2013-02-02 14:06:00,
2013-02-02 06:10:00,50.5,46.7,30.24,SE,145,1.8,0.0,87,0.00,,,0.00,WeatherCatV1.15B25,2013-02-02 14:10:00,
2013-02-02 06:11:00,40.8,39.5,30.49,NNE,22,0.0,0.0,95,0.00,,,0.00,LWC V2.11 B50,2013-02-02 14:11:00,
2013-02-02 06:15:00,50.5,46.7,30.24,SE,145,1.8,0.0,87,0.00,,,0.00,WeatherCatV1.15B25,2013-02-02 14:15:00,
2013-02-02 06:16:00,40.8,39.5,30.50,NNE,22,0.0,0.0,95,0.00,,,0.00,LWC V2.11 B50,2013-02-02 14:16:00,
2013-02-02 06:20:00,50.5,46.7,30.24,SE,144,1.8,0.0,87,0.00,,,0.00,WeatherCatV1.15B25,2013-02-02 14:20:00,
2013-02-02 06:21:00,40.8,39.5,30.50,ENE,67,0.0,0.0,95,0.00,,,0.00,LWC V2.11 B50,2013-02-02 14:21:00,
2013-02-02 06:25:00,50.5,46.7,30.24,SE,144,1.8,0.0,87,0.00,,,0.00,WeatherCatV1.15B25,2013-02-02 14:25:00,
2013-02-02 06:26:00,40.8,39.5,30.49,SE,135,0.0,0.0,95,0.00,,,0.00,LWC V2.11 B50,2013-02-02 14:26:00,
2013-02-02 06:30:00,50.5,46.7,30.24,SE,144,1.8,0.0,87,0.00,,,0.00,WeatherCatV1.15B25,2013-02-02 14:30:00,
2013-02-02 06:31:00,41.0,39.7,30.50,NNE,22,0.0,0.0,95,0.00,,,0.00,LWC V2.11 B50,2013-02-02 14:31:00,
2013-02-02 06:35:00,50.5,46.7,30.24,SE,144,1.8,0.0,87,0.00,,,0.00,WeatherCatV1.15B25,2013-02-02 14:35:00,
2013-02-02 06:37:00,41.2,39.8,30.49,ENE,67,0.0,0.0,95,0.00,,,0.00,LWC V2.11 B50,2013-02-02 14:37:00,
2013-02-02 06:40:00,50.5,46.7,30.24,SE,144,1.8,0.0,87,0.00,,,0.00,WeatherCatV1.15B25,2013-02-02 14:40:00,
2013-02-02 06:42:00,41.2,39.8,30.50,NNW,337,0.0,0.0,95,0.00,,,0.00,LWC V2.11 B50,2013-02-02 14:42:00,
2013-02-02 06:45:00,50.5,46.7,30.24,SE,144,1.8,0.0,87,0.00,,,0.00,WeatherCatV1.15B25,2013-02-02 14:45:00,
2013-02-02 06:47:00,41.4,40.0,30.49,NE,45,0.0,0.0,95,0.00,,,0.00,LWC V2.11 B50,2013-02-02 14:47:00,
2013-02-02 06:50:00,50.5,46.7,30.24,SE,144,1.8,0.0,87,0.00,,,0.00,WeatherCatV1.15B25,2013-02-02 14:50:00,
2013-02-02 06:52:00,41.4,40.0,30.49,ENE,67,0.0,0.0,95,0.00,,,0.00,LWC V2.11 B50,2013-02-02 14:52:00,
2013-02-02 06:55:00,50.5,46.7,30.24,SE,144,1.8,0.0,87,0.00,,,0.00,WeatherCatV1.15B25,2013-02-02 14:55:00,
2013-02-02 06:57:00,41.5,40.2,30.50,ENE,67,0.0,0.0,95,0.00,,,0.00,LWC V2.11 B50,2013-02-02 14:57:00,
2013-02-02 07:00:00,50.5,46.7,30.24,SE,144,1.8,0.0,87,0.00,,,0.00,WeatherCatV1.15B25,2013-02-02 15:00:00,
2013-02-02 07:02:00,41.5,40.2,30.49,ENE,67,0.0,0.0,95,0.00,,,0.00,LWC V2.11 B50,2013-02-02 15:02:00,
2013-02-02 07:05:00,50.5,46.7,30.24,SE,144,1.8,0.0,87,0.00,,,0.00,WeatherCatV1.15B25,2013-02-02 15:05:00,
2013-02-02 07:07:00,41.5,40.2,30.50,NNE,22,0.0,0.0,95,0.00,,,0.00,LWC V2.11 B50,2013-02-02 15:07:00,
2013-02-02 07:10:00,50.5,46.7,30.24,SE,144,1.8,0.0,87,0.00,,,0.00,WeatherCatV1.15B25,2013-02-02 15:10:00,
2013-02-02 07:12:00,41.7,40.4,30.49,North,0,0.0,0.0,95,0.00,,,0.00,LWC V2.11 B50,2013-02-02 15:12:00,
2013-02-02 07:15:00,50.5,46.7,30.24,SE,144,1.8,0.0,87,0.00,,,0.00,WeatherCatV1.15B25,2013-02-02 15:15:00,
2013-02-02 07:17:00,41.7,40.4,30.50,ESE,112,0.0,0.0,95,0.00,,,0.00,LWC V2.11 B50,2013-02-02 15:17:00,
2013-02-02 07:20:00,50.5,46.7,30.24,SE,144,1.8,0.0,87,0.00,,,0.00,WeatherCatV1.15B25,2013-02-02 15:20:00,
2013-02-02 07:22:00,41.7,40.4,30.49,NNE,22,0.0,0.0,95,0.00,,,0.00,LWC V2.11 B50,2013-02-02 15:22:00,
2013-02-02 07:25:00,50.5,46.7,30.24,SE,144,1.8,0.0,87,0.00,,,0.00,WeatherCatV1.15B25,2013-02-02 15:25:00,
2013-02-02 07:30:00,50.5,46.7,30.24,SE,144,1.8,0.0,87,0.00,,,0.00,WeatherCatV1.15B25,2013-02-02 15:30:00,
2013-02-02 07:35:00,50.5,46.7,30.24,SE,144,1.8,0.0,87,0.00,,,0.00,WeatherCatV1.15B25,2013-02-02 15:35:00,
2013-02-02 07:40:00,50.5,46.7,30.24,SE,144,1.8,0.0,87,0.00,,,0.00,WeatherCatV1.15B25,2013-02-02 15:40:00,
2013-02-02 07:45:00,50.5,46.7,30.24,SE,144,1.8,0.0,87,0.00,,,0.00,WeatherCatV1.15B25,2013-02-02 15:45:00,
2013-02-02 07:50:00,50.5,46.7,30.24,SE,144,1.8,0.0,87,0.00,,,0.00,WeatherCatV1.15B25,2013-02-02 15:50:00,
2013-02-02 07:55:00,41.9,-99.9,30.49,NNE,22,0.0,0.0,95,0.00,,,0.00,LWC V2.11 B50,2013-02-02 15:55:00,
2013-02-02 08:00:00,50.5,46.7,30.24,SE,144,1.8,0.0,87,0.00,,,0.00,WeatherCatV1.15B25,2013-02-02 16:00:00,
2013-02-02 08:05:00,50.5,46.7,30.24,SE,144,1.8,0.0,87,0.00,,,0.00,WeatherCatV1.15B25,2013-02-02 16:05:00,
2013-02-02 08:06:00,42.4,41.1,30.49,NE,45,0.0,0.0,95,0.00,,,0.00,LWC V2.11 B50,2013-02-02 16:06:00,
2013-02-02 08:10:00,50.5,46.7,30.24,SE,144,1.8,0.0,87,0.00,,,0.00,WeatherCatV1.15B25,2013-02-02 16:10:00,
2013-02-02 08:11:00,42.4,41.1,30.50,NNE,22,0.0,0.0,95,0.00,,,0.00,LWC V2.11 B50,2013-02-02 16:11:00,
2013-02-02 08:15:00,50.5,46.7,30.24,SE,144,1.8,0.0,87,0.00,,,0.00,WeatherCatV1.15B25,2013-02-02 16:15:00,
2013-02-02 08:16:00,42.4,41.1,30.50,North,0,0.0,0.0,95,0.00,,,0.00,LWC V2.11 B50,2013-02-02 16:16:00,
2013-02-02 08:20:00,50.5,46.7,30.24,SE,144,1.8,0.0,87,0.00,,,0.00,WeatherCatV1.15B25,2013-02-02 16:20:00,
2013-02-02 08:21:00,42.4,41.1,30.50,NNW,337,0.0,0.0,95,0.00,,,0.00,LWC V2.11 B50,2013-02-02 16:21:00,
2013-02-02 08:25:00,50.5,46.7,30.24,SE,144,1.8,0.0,87,0.00,,,0.00,WeatherCatV1.15B25,2013-02-02 16:25:00,
2013-02-02 08:26:00,42.6,41.3,30.50,North,0,0.0,0.0,95,0.00,,,0.00,LWC V2.11 B50,2013-02-02 16:26:00,
2013-02-02 08:30:00,50.5,46.7,30.24,SE,144,1.8,0.0,87,0.00,,,0.00,WeatherCatV1.15B25,2013-02-02 16:30:00,
2013-02-02 08:31:00,42.6,41.3,30.50,North,0,0.0,0.0,95,0.00,,,0.00,LWC V2.11 B50,2013-02-02 16:31:00,
2013-02-02 08:35:00,50.5,46.7,30.24,SE,144,1.8,0.0,87,0.00,,,0.00,WeatherCatV1.15B25,2013-02-02 16:35:00,
2013-02-02 08:37:00,42.6,41.3,30.50,ENE,67,0.0,0.0,95,0.00,,,0.00,LWC V2.11 B50,2013-02-02 16:37:00,
2013-02-02 08:40:00,50.5,46.7,30.24,SE,144,1.8,0.0,87,0.00,,,0.00,WeatherCatV1.15B25,2013-02-02 16:40:00,
2013-02-02 08:42:00,42.6,41.3,30.49,NE,45,0.0,0.0,95,0.00,,,0.00,LWC V2.11 B50,2013-02-02 16:42:00,
2013-02-02 08:45:00,50.5,46.7,30.24,SE,144,1.8,0.0,87,0.00,,,0.00,WeatherCatV1.15B25,2013-02-02 16:45:00,
2013-02-02 08:47:00,42.6,41.3,30.49,NW,315,0.0,0.0,95,0.00,,,0.00,LWC V2.11 B50,2013-02-02 16:47:00,
2013-02-02 08:50:00,50.5,46.7,30.24,SE,144,1.8,0.0,87,0.00,,,0.00,WeatherCatV1.15B25,2013-02-02 16:50:00,
2013-02-02 08:52:00,42.6,41.3,30.50,NE,45,0.0,0.0,95,0.00,,,0.00,LWC V2.11 B50,2013-02-02 16:52:00,
2013-02-02 08:55:00,50.5,46.7,30.24,SE,144,1.8,0.0,87,0.00,,,0.00,WeatherCatV1.15B25,2013-02-02 16:55:00,
2013-02-02 08:57:00,42.8,41.5,30.50,West,270,0.0,0.0,95,0.00,,,0.00,LWC V2.11 B50,2013-02-02 16:57:00,
2013-02-02 09:00:00,50.5,46.7,30.24,SE,144,1.8,0.0,87,0.00,,,0.00,WeatherCatV1.15B25,2013-02-02 17:00:00,
2013-02-02 09:02:00,43.0,41.6,30.50,ENE,67,0.0,0.0,95,0.00,,,0.00,LWC V2.11 B50,2013-02-02 17:02:00,
2013-02-02 09:05:00,50.5,46.7,30.24,SE,144,1.8,0.0,87,0.00,,,0.00,WeatherCatV1.15B25,2013-02-02 17:05:00,
2013-02-02 09:07:00,43.0,41.6,30.49,NNW,337,0.0,0.0,95,0.00,,,0.00,LWC V2.11 B50,2013-02-02 17:07:00,
2013-02-02 09:10:00,50.5,46.7,30.24,SE,144,1.8,0.0,87,0.00,,,0.00,WeatherCatV1.15B25,2013-02-02 17:10:00,
2013-02-02 09:12:00,43.0,41.6,30.49,ENE,67,0.0,0.0,95,0.00,,,0.00,LWC V2.11 B50,2013-02-02 17:12:00,
2013-02-02 09:15:00,50.5,46.7,30.24,SE,144,1.8,0.0,87,0.00,,,0.00,WeatherCatV1.15B25,2013-02-02 17:15:00,
2013-02-02 09:17:00,43.2,41.8,30.50,WNW,292,0.0,0.0,95,0.00,,,0.00,LWC V2.11 B50,2013-02-02 17:17:00,
2013-02-02 09:20:00,50.5,46.7,30.24,SE,144,1.8,0.0,87,0.00,,,0.00,WeatherCatV1.15B25,2013-02-02 17:20:00,
2013-02-02 09:22:00,43.2,41.8,30.50,NNE,22,0.0,0.0,95,0.00,,,0.00,LWC V2.11 B50,2013-02-02 17:22:00,
2013-02-02 09:25:00,50.5,46.7,30.24,SE,144,1.8,0.0,87,0.00,,,0.00,WeatherCatV1.15B25,2013-02-02 17:25:00,
2013-02-02 09:27:00,43.3,42.0,30.49,NNE,22,0.0,0.0,95,0.00,,,0.00,LWC V2.11 B50,2013-02-02 17:27:00,
2013-02-02 09:30:00,50.5,46.7,30.24,SE,144,1.8,0.0,87,0.00,,,0.00,WeatherCatV1.15B25,2013-02-02 17:30:00,
2013-02-02 09:32:00,43.3,42.0,30.49,NNE,22,0.0,0.0,95,0.00,,,0.00,LWC V2.11 B50,2013-02-02 17:32:00,
2013-02-02 09:35:00,50.5,46.7,30.24,SE,144,1.8,0.0,87,0.00,,,0.00,WeatherCatV1.15B25,2013-02-02 17:35:00,
2013-02-02 09:37:00,43.3,42.0,30.49,SSE,157,0.0,0.0,95,0.00,,,0.00,LWC V2.11 B50,2013-02-02 17:37:00,
2013-02-02 09:40:00,50.5,46.7,30.24,SE,144,1.8,0.0,87,0.00,,,0.00,WeatherCatV1.15B25,2013-02-02 17:40:00,
2013-02-02 09:42:00,43.5,42.2,30.49,North,0,0.0,0.0,95,0.00,,,0.00,LWC V2.11 B50,2013-02-02 17:42:00,
2013-02-02 09:45:00,50.5,46.7,30.24,SE,144,1.8,0.0,87,0.00,,,0.00,WeatherCatV1.15B25,2013-02-02 17:45:00,
2013-02-02 09:47:00,43.7,42.3,30.50,North,0,0.0,0.0,95,0.00,,,0.00,LWC V2.11 B50,2013-02-02 17:47:00,
2013-02-02 09:50:00,50.5,46.7,30.24,SE,144,1.8,0.0,87,0.00,,,0.00,WeatherCatV1.15B25,2013-02-02 17:50:00,
2013-02-02 09:53:00,43.9,42.8,30.49,North,0,0.0,0.0,96,0.00,,,0.00,LWC V2.11 B50,2013-02-02 17:53:00,
2013-02-02 09:55:00,50.5,46.7,30.24,SE,144,1.8,0.0,87,0.00,,,0.00,WeatherCatV1.15B25,2013-02-02 17:55:00,
2013-02-02 09:58:00,44.1,43.0,30.50,North,0,0.0,0.0,96,0.00,,,0.00,LWC V2.11 B50,2013-02-02 17:58:00,
2013-02-02 10:00:00,50.5,46.7,30.24,SE,144,1.8,0.0,87,0.00,,,0.00,WeatherCatV1.15B25,2013-02-02 18:00:00,
2013-02-02 10:03:00,44.2,43.2,30.49,NNE,22,0.0,0.0,96,0.00,,,0.00,LWC V2.11 B50,2013-02-02 18:03:00,
2013-02-02 10:05:00,50.5,46.7,30.24,SE,144,1.8,0.0,87,0.00,,,0.00,WeatherCatV1.15B25,2013-02-02 18:05:00,
2013-02-02 10:08:00,44.2,43.2,30.49,NNW,337,0.0,0.0,96,0.00,,,0.00,LWC V2.11 B50,2013-02-02 18:08:00,
2013-02-02 10:10:00,50.5,46.7,30.24,SE,144,1.8,0.0,87,0.00,,,0.00,WeatherCatV1.15B25,2013-02-02 18:10:00,
2013-02-02 10:13:00,44.4,43.3,30.49,WNW,292,0.0,0.0,96,0.00,,,0.00,LWC V2.11 B50,2013-02-02 18:13:00,
2013-02-02 10:15:00,50.5,46.7,30.24,SE,144,1.8,0.0,87,0.00,,,0.00,WeatherCatV1.15B25,2013-02-02 18:15:00,
2013-02-02 10:18:00,44.4,43.3,30.49,North,0,0.0,0.0,96,0.00,,,0.00,LWC V2.11 B50,2013-02-02 18:18:00,
2013-02-02 10:20:00,50.5,46.7,30.24,SE,144,1.8,0.0,87,0.00,,,0.00,WeatherCatV1.15B25,2013-02-02 18:20:00,
2013-02-02 10:23:00,44.6,43.2,30.49,NNW,337,0.0,0.0,95,0.00,,,0.00,LWC V2.11 B50,2013-02-02 18:23:00,
2013-02-02 10:25:00,50.5,46.7,30.24,SE,144,1.8,0.0,87,0.00,,,0.00,WeatherCatV1.15B25,2013-02-02 18:25:00,
2013-02-02 10:28:00,44.6,43.2,30.49,North,0,0.0,0.0,95,0.00,,,0.00,LWC V2.11 B50,2013-02-02 18:28:00,
2013-02-02 10:30:00,50.5,46.7,30.24,SE,144,1.8,0.0,87,0.00,,,0.00,WeatherCatV1.15B25,2013-02-02 18:30:00,
2013-02-02 10:33:00,44.8,43.4,30.49,NNW,337,0.0,0.0,95,0.00,,,0.00,LWC V2.11 B50,2013-02-02 18:33:00,
2013-02-02 10:35:00,50.5,46.7,30.24,SE,144,1.8,0.0,87,0.00,,,0.00,WeatherCatV1.15B25,2013-02-02 18:35:00,
2013-02-02 10:38:00,44.8,43.4,30.49,North,0,0.0,0.0,95,0.00,,,0.00,LWC V2.11 B50,2013-02-02 18:38:00,
2013-02-02 10:40:00,50.5,46.7,30.24,SE,144,1.8,0.0,87,0.00,,,0.00,WeatherCatV1.15B25,2013-02-02 18:40:00,
2013-02-02 10:43:00,45.0,43.8,30.49,NNW,337,0.0,0.0,95,0.00,,,0.00,LWC V2.11 B50,2013-02-02 18:43:00,
2013-02-02 10:45:00,50.5,46.7,30.24,SE,144,1.8,0.0,87,0.00,,,0.00,WeatherCatV1.15B25,2013-02-02 18:45:00,
2013-02-02 10:48:00,45.1,43.8,30.49,NNW,337,0.0,0.0,95,0.00,,,0.00,LWC V2.11 B50,2013-02-02 18:48:00,
2013-02-02 10:50:00,50.5,46.7,30.24,SE,144,1.8,0.0,87,0.00,,,0.00,WeatherCatV1.15B25,2013-02-02 18:50:00,
2013-02-02 10:53:00,45.1,43.8,30.49,North,0,0.0,0.0,95,0.00,,,0.00,LWC V2.11 B50,2013-02-02 18:53:00,
2013-02-02 10:55:00,50.5,46.7,30.24,SE,144,1.8,0.0,87,0.00,,,0.00,WeatherCatV1.15B25,2013-02-02 18:55:00,
2013-02-02 10:58:00,45.3,44.0,30.49,NNE,22,0.0,0.0,95,0.00,,,0.00,LWC V2.11 B50,2013-02-02 18:58:00,
2013-02-02 11:00:00,50.5,46.7,30.24,SE,144,1.8,0.0,87,0.00,,,0.00,WeatherCatV1.15B25,2013-02-02 19:00:00,
2013-02-02 11:03:00,45.5,44.2,30.49,NNE,22,0.0,0.0,95,0.00,,,0.00,LWC V2.11 B50,2013-02-02 19:03:00,
2013-02-02 11:05:00,50.5,46.7,30.24,SE,144,1.8,0.0,87,0.00,,,0.00,WeatherCatV1.15B25,2013-02-02 19:05:00,
2013-02-02 11:09:00,45.7,44.3,30.49,NNW,337,0.0,0.0,95,0.00,,,0.00,LWC V2.11 B50,2013-02-02 19:09:00,
2013-02-02 11:10:00,50.5,46.7,30.24,SE,144,1.8,0.0,87,0.00,,,0.00,WeatherCatV1.15B25,2013-02-02 19:10:00,
2013-02-02 11:14:00,45.7,44.3,30.49,ESE,112,0.0,0.0,95,0.00,,,0.00,LWC V2.11 B50,2013-02-02 19:14:00,
2013-02-02 11:15:00,50.5,46.7,30.24,SE,144,1.8,0.0,87,0.00,,,0.00,WeatherCatV1.15B25,2013-02-02 19:15:00,
2013-02-02 11:19:00,45.7,44.3,30.49,NW,315,0.0,0.0,95,0.00,,,0.00,LWC V2.11 B50,2013-02-02 19:19:00,
2013-02-02 11:20:00,50.5,46.7,30.24,SE,144,1.8,0.0,87,0.00,,,0.00,WeatherCatV1.15B25,2013-02-02 19:20:00,
2013-02-02 11:24:00,45.9,44.3,30.49,NW,315,0.0,0.0,95,0.00,,,0.00,LWC V2.11 B50,2013-02-02 19:24:00,
2013-02-02 11:25:00,50.5,46.7,30.24,SE,144,1.8,0.0,87,0.00,,,0.00,WeatherCatV1.15B25,2013-02-02 19:25:00,
2013-02-02 11:29:00,46.0,44.7,30.49,NW,315,0.0,0.0,95,0.00,,,0.00,LWC V2.11 B50,2013-02-02 19:29:00,
2013-02-02 11:30:00,50.5,46.7,30.24,SE,144,1.8,0.0,87,0.00,,,0.00,WeatherCatV1.15B25,2013-02-02 19:30:00,
2013-02-02 11:34:00,46.0,44.7,30.48,North,0,0.0,0.0,95,0.00,,,0.00,LWC V2.11 B50,2013-02-02 19:34:00,
2013-02-02 11:35:00,50.5,46.7,30.24,SE,144,1.8,0.0,87,0.00,,,0.00,WeatherCatV1.15B25,2013-02-02 19:35:00,
2013-02-02 11:39:00,46.2,44.9,30.48,West,270,0.0,0.0,95,0.00,,,0.00,LWC V2.11 B50,2013-02-02 19:39:00,
2013-02-02 11:40:00,50.5,46.7,30.24,SE,144,1.8,0.0,87,0.00,,,0.00,WeatherCatV1.15B25,2013-02-02 19:40:00,
2013-02-02 11:44:00,46.2,44.9,30.48,NNE,22,0.0,0.0,95,0.00,,,0.00,LWC V2.11 B50,2013-02-02 19:44:00,
2013-02-02 11:45:00,50.5,46.7,30.24,SE,144,1.8,0.0,87,0.00,,,0.00,WeatherCatV1.15B25,2013-02-02 19:45:00,
2013-02-02 11:49:00,46.2,44.9,30.48,North,0,0.0,0.0,95,0.00,,,0.00,LWC V2.11 B50,2013-02-02 19:49:00,
2013-02-02 11:50:00,50.5,46.7,30.24,SE,144,1.8,0.0,87,0.00,,,0.00,WeatherCatV1.15B25,2013-02-02 19:50:00,
2013-02-02 11:54:00,46.4,45.0,30.48,North,0,0.0,0.0,95,0.00,,,0.00,LWC V2.11 B50,2013-02-02 19:54:00,
2013-02-02 11:55:00,50.5,46.7,30.24,SE,144,1.8,0.0,87,0.00,,,0.00,WeatherCatV1.15B25,2013-02-02 19:55:00,
2013-02-02 11:59:00,46.6,45.2,30.48,NNW,337,0.0,0.0,95,0.00,,,0.00,LWC V2.11 B50,2013-02-02 19:59:00,
2013-02-02 12:00:00,50.5,46.7,30.24,SE,144,1.8,0.0,87,0.00,,,0.00,WeatherCatV1.15B25,2013-02-02 20:00:00,
2013-02-02 12:04:00,46.6,45.0,30.47,ENE,67,0.0,0.0,94,0.00,,,0.00,LWC V2.11 B50,2013-02-02 20:04:00,
2013-02-02 12:05:00,50.5,46.7,30.24,SE,144,1.8,0.0,87,0.00,,,0.00,WeatherCatV1.15B25,2013-02-02 20:05:00,
2013-02-02 12:09:00,46.6,45.0,30.47,East,90,0.0,0.0,94,0.00,,,0.00,LWC V2.11 B50,2013-02-02 20:09:00,
2013-02-02 12:10:00,50.5,46.7,30.24,SE,144,1.8,0.0,87,0.00,,,0.00,WeatherCatV1.15B25,2013-02-02 20:10:00,
2013-02-02 12:14:00,46.8,45.1,30.47,North,0,0.0,0.0,94,0.00,,,0.00,LWC V2.11 B50,2013-02-02 20:14:00,
2013-02-02 12:15:00,50.5,46.7,30.24,SE,144,1.8,0.0,87,0.00,,,0.00,WeatherCatV1.15B25,2013-02-02 20:15:00,
2013-02-02 12:19:00,46.8,45.1,30.47,NW,315,0.0,0.0,94,0.00,,,0.00,LWC V2.11 B50,2013-02-02 20:19:00,
2013-02-02 12:20:00,50.5,46.7,30.24,SE,144,1.8,0.0,87,0.00,,,0.00,WeatherCatV1.15B25,2013-02-02 20:20:00,
2013-02-02 12:25:00,46.8,45.1,30.47,West,270,0.0,0.0,94,0.00,,,0.00,LWC V2.11 B50,2013-02-02 20:25:00,
2013-02-02 12:30:00,46.9,45.3,30.46,North,0,0.0,0.0,94,0.00,,,0.00,LWC V2.11 B50,2013-02-02 20:30:00,
2013-02-02 12:35:00,46.9,45.5,30.46,NW,315,0.0,0.0,94,0.00,,,0.00,LWC V2.11 B50,2013-02-02 20:35:00,
2013-02-02 12:40:00,47.1,45.2,30.46,ENE,67,0.0,0.0,93,0.00,,,0.00,LWC V2.11 B50,2013-02-02 20:40:00,
2013-02-02 12:45:00,47.1,45.2,30.46,NW,315,0.0,0.0,93,0.00,,,0.00,LWC V2.11 B50,2013-02-02 20:45:00,
2013-02-02 12:50:00,47.3,45.4,30.45,NW,315,0.0,0.0,93,0.00,,,0.00,LWC V2.11 B50,2013-02-02 20:50:00,
2013-02-02 12:55:00,47.3,45.4,30.45,NW,315,0.0,0.0,93,0.00,,,0.00,LWC V2.11 B50,2013-02-02 20:55:00,
2013-02-02 13:00:00,47.5,45.6,30.45,NW,315,0.0,0.0,93,0.00,,,0.00,LWC V2.11 B50,2013-02-02 21:00:00,
2013-02-02 13:05:00,47.5,45.6,30.46,SW,225,0.0,0.0,93,0.00,,,0.00,LWC V2.11 B50,2013-02-02 21:05:00,
2013-02-02 13:10:00,47.5,45.3,30.45,SW,225,0.0,0.0,92,0.00,,,0.00,LWC V2.11 B50,2013-02-02 21:10:00,
2013-02-02 13:15:00,47.5,45.3,30.45,NW,315,0.0,0.0,92,0.00,,,0.00,LWC V2.11 B50,2013-02-02 21:15:00,
2013-02-02 13:20:00,47.5,45.3,30.46,SSE,157,0.0,0.0,92,0.00,,,0.00,LWC V2.11 B50,2013-02-02 21:20:00,
2013-02-02 13:25:00,47.5,45.3,30.45,NNW,337,0.0,0.0,92,0.00,,,0.00,LWC V2.11 B50,2013-02-02 21:25:00,
2013-02-02 13:30:00,47.7,45.5,30.45,SSW,202,0.0,0.0,92,0.00,,,0.00,LWC V2.11 B50,2013-02-02 21:30:00,
2013-02-02 13:35:00,47.7,45.2,30.45,WNW,292,0.0,0.0,91,0.00,,,0.00,LWC V2.11 B50,2013-02-02 21:35:00,
2013-02-02 13:40:00,50.5,46.7,30.24,SE,144,1.8,0.0,87,0.00,,,0.00,WeatherCatV1.15B25,2013-02-02 21:40:00,
2013-02-02 13:41:00,47.8,45.4,30.45,North,0,0.0,0.0,91,0.00,,,0.00,LWC V2.11 B50,2013-02-02 21:41:00,
2013-02-02 13:45:00,50.5,46.7,30.24,SE,144,1.8,0.0,87,0.00,,,0.00,WeatherCatV1.15B25,2013-02-02 21:45:00,
2013-02-02 13:46:00,47.8,45.4,30.45,West,270,0.0,0.0,91,0.00,,,0.00,LWC V2.11 B50,2013-02-02 21:46:00,
2013-02-02 13:50:00,50.5,46.7,30.24,SE,144,1.8,0.0,87,0.00,,,0.00,WeatherCatV1.15B25,2013-02-02 21:50:00,
2013-02-02 13:51:00,47.8,45.4,30.45,WSW,247,0.0,0.0,91,0.00,,,0.00,LWC V2.11 B50,2013-02-02 21:51:00,
2013-02-02 13:55:00,50.5,46.7,30.24,SE,144,1.8,0.0,87,0.00,,,0.00,WeatherCatV1.15B25,2013-02-02 21:55:00,
2013-02-02 13:56:00,48.0,45.6,30.44,WSW,247,0.0,0.0,91,0.00,,,0.00,LWC V2.11 B50,2013-02-02 21:56:00,
2013-02-02 14:00:00,50.5,46.7,30.24,SE,144,1.8,0.0,87,0.00,,,0.00,WeatherCatV1.15B25,2013-02-02 22:00:00,
2013-02-02 14:01:00,48.0,45.9,30.44,West,270,0.0,0.0,92,0.00,,,0.00,LWC V2.11 B50,2013-02-02 22:01:00,
2013-02-02 14:05:00,50.5,46.7,30.24,SE,144,1.8,0.0,87,0.00,,,0.00,WeatherCatV1.15B25,2013-02-02 22:05:00,
2013-02-02 14:06:00,48.0,45.6,30.44,West,270,0.0,0.0,91,0.00,,,0.00,LWC V2.11 B50,2013-02-02 22:06:00,
2013-02-02 14:10:00,50.5,46.7,30.24,SE,144,1.8,0.0,87,0.00,,,0.00,WeatherCatV1.15B25,2013-02-02 22:10:00,
2013-02-02 14:11:00,48.0,45.6,30.44,WSW,247,0.0,0.0,91,0.00,,,0.00,LWC V2.11 B50,2013-02-02 22:11:00,
2013-02-02 14:15:00,50.5,46.7,30.24,SE,144,1.8,0.0,87,0.00,,,0.00,WeatherCatV1.15B25,2013-02-02 22:15:00,
2013-02-02 14:16:00,48.0,45.6,30.44,WSW,247,0.0,0.0,91,0.00,,,0.00,LWC V2.11 B50,2013-02-02 22:16:00,
2013-02-02 14:20:00,50.5,46.7,30.24,SE,144,1.8,0.0,87,0.00,,,0.00,WeatherCatV1.15B25,2013-02-02 22:20:00,
2013-02-02 14:21:00,48.0,45.3,30.44,WSW,247,0.0,0.0,90,0.00,,,0.00,LWC V2.11 B50,2013-02-02 22:21:00,
2013-02-02 14:25:00,50.5,46.7,30.24,SE,144,1.8,0.0,87,0.00,,,0.00,WeatherCatV1.15B25,2013-02-02 22:25:00,
2013-02-02 14:26:00,48.0,45.5,30.44,West,270,0.0,0.0,90,0.00,,,0.00,LWC V2.11 B50,2013-02-02 22:26:00,
2013-02-02 14:30:00,50.5,46.7,30.24,SE,144,1.8,0.0,87,0.00,,,0.00,WeatherCatV1.15B25,2013-02-02 22:30:00,
2013-02-02 14:31:00,48.2,45.5,30.44,WSW,247,0.0,0.0,90,0.00,,,0.00,LWC V2.11 B50,2013-02-02 22:31:00,
2013-02-02 14:35:00,50.5,46.7,30.24,SE,144,1.8,0.0,87,0.00,,,0.00,WeatherCatV1.15B25,2013-02-02 22:35:00,
2013-02-02 14:36:00,48.2,45.5,30.44,WSW,247,0.0,0.0,90,0.00,,,0.00,LWC V2.11 B50,2013-02-02 22:36:00,
2013-02-02 14:40:00,50.5,46.7,30.24,SE,144,1.8,0.0,87,0.00,,,0.00,WeatherCatV1.15B25,2013-02-02 22:40:00,
2013-02-02 14:41:00,48.0,45.3,30.43,WSW,247,0.0,0.0,90,0.00,,,0.00,LWC V2.11 B50,2013-02-02 22:41:00,
2013-02-02 14:45:00,50.5,46.7,30.24,SE,144,1.8,0.0,87,0.00,,,0.00,WeatherCatV1.15B25,2013-02-02 22:45:00,
2013-02-02 14:46:00,48.0,45.3,30.43,WSW,247,0.0,0.0,90,0.00,,,0.00,LWC V2.11 B50,2013-02-02 22:46:00,
2013-02-02 14:50:00,50.5,46.7,30.24,SE,144,1.8,0.0,87,0.00,,,0.00,WeatherCatV1.15B25,2013-02-02 22:50:00,
2013-02-02 14:51:00,48.0,45.3,30.43,SW,225,0.0,0.0,90,0.00,,,0.00,LWC V2.11 B50,2013-02-02 22:51:00,
2013-02-02 14:55:00,50.5,46.7,30.24,SE,144,1.8,0.0,87,0.00,,,0.00,WeatherCatV1.15B25,2013-02-02 22:55:00,
2013-02-02 14:57:00,48.0,45.0,30.43,WSW,247,0.0,0.0,89,0.00,,,0.00,LWC V2.11 B50,2013-02-02 22:57:00,
2013-02-02 15:00:00,50.5,46.7,30.24,SE,144,1.8,0.0,87,0.00,,,0.00,WeatherCatV1.15B25,2013-02-02 23:00:00,
2013-02-02 15:02:00,48.0,45.0,30.43,WSW,247,0.0,0.0,89,0.00,,,0.00,LWC V2.11 B50,2013-02-02 23:02:00,
2013-02-02 15:05:00,50.5,46.7,30.24,SE,144,1.8,0.0,87,0.00,,,0.00,WeatherCatV1.15B25,2013-02-02 23:05:00,
2013-02-02 15:07:00,48.0,45.0,30.43,SW,225,0.0,0.0,89,0.00,,,0.00,LWC V2.11 B50,2013-02-02 23:07:00,
2013-02-02 15:10:00,50.5,46.7,30.24,SE,144,1.8,0.0,87,0.00,,,0.00,WeatherCatV1.15B25,2013-02-02 23:10:00,
2013-02-02 15:12:00,48.0,45.0,30.43,SW,225,0.0,0.0,89,0.00,,,0.00,LWC V2.11 B50,2013-02-02 23:12:00,
2013-02-02 15:15:00,50.5,46.7,30.24,SE,144,1.8,0.0,87,0.00,,,0.00,WeatherCatV1.15B25,2013-02-02 23:15:00,
2013-02-02 15:17:00,48.0,45.0,30.44,WSW,247,0.0,0.0,89,0.00,,,0.00,LWC V2.11 B50,2013-02-02 23:17:00,
2013-02-02 15:20:00,50.5,46.7,30.24,SE,144,1.8,0.0,87,0.00,,,0.00,WeatherCatV1.15B25,2013-02-02 23:20:00,
2013-02-02 15:22:00,47.7,44.8,30.43,SW,225,0.0,0.0,89,0.00,,,0.00,LWC V2.11 B50,2013-02-02 23:22:00,
2013-02-02 15:25:00,50.5,46.7,30.24,SE,144,1.8,0.0,87,0.00,,,0.00,WeatherCatV1.15B25,2013-02-02 23:25:00,
2013-02-02 15:27:00,47.5,44.5,30.43,SW,225,0.0,0.0,89,0.00,,,0.00,LWC V2.11 B50,2013-02-02 23:27:00,
2013-02-02 15:30:00,50.5,46.7,30.24,SE,144,1.8,0.0,87,0.00,,,0.00,WeatherCatV1.15B25,2013-02-02 23:30:00,
2013-02-02 15:32:00,47.3,44.3,30.43,SSW,202,0.0,0.0,89,0.00,,,0.00,LWC V2.11 B50,2013-02-02 23:32:00,
2013-02-02 15:35:00,50.5,46.7,30.24,SE,144,1.8,0.0,87,0.00,,,0.00,WeatherCatV1.15B25,2013-02-02 23:35:00,
2013-02-02 15:37:00,47.1,44.1,30.43,SSW,202,0.0,0.0,89,0.00,,,0.00,LWC V2.11 B50,2013-02-02 23:37:00,
2013-02-02 15:40:00,50.5,46.7,30.24,SE,144,1.8,0.0,87,0.00,,,0.00,WeatherCatV1.15B25,2013-02-02 23:40:00,
2013-02-02 15:42:00,47.1,44.1,30.43,ENE,67,0.0,0.0,89,0.00,,,0.00,LWC V2.11 B50,2013-02-02 23:42:00,
2013-02-02 15:45:00,50.5,46.7,30.24,SE,144,1.8,0.0,87,0.00,,,0.00,WeatherCatV1.15B25,2013-02-02 23:45:00,
2013-02-02 15:47:00,47.1,44.1,30.43,NNW,337,0.0,0.0,89,0.00,,,0.00,LWC V2.11 B50,2013-02-02 23:47:00,
2013-02-02 15:50:00,50.5,46.7,30.24,SE,144,1.8,0.0,87,0.00,,,0.00,WeatherCatV1.15B25,2013-02-02 23:50:00,
2013-02-02 15:52:00,46.9,43.9,30.43,ENE,67,0.0,0.0,89,0.00,,,0.00,LWC V2.11 B50,2013-02-02 23:52:00,
2013-02-02 15:55:00,50.5,46.7,30.24,SE,144,1.8,0.0,87,0.00,,,0.00,WeatherCatV1.15B25,2013-02-02 23:55:00,
2013-02-02 15:57:00,46.8,43.7,30.43,NNW,337,0.0,0.0,89,0.00,,,0.00,LWC V2.11 B50,2013-02-02 23:57:00,
2013-02-02 16:00:00,50.5,46.7,30.24,SE,144,1.8,0.0,87,0.00,,,0.00,WeatherCatV1.15B25,2013-02-03 00:00:00,
2013-02-02 16:02:00,46.6,43.6,30.42,SW,225,0.0,0.0,89,0.00,,,0.00,LWC V2.11 B50,2013-02-03 00:02:00,
2013-02-02 16:05:00,50.5,46.7,30.24,SE,144,1.8,0.0,87,0.00,,,0.00,WeatherCatV1.15B25,2013-02-03 00:05:00,
2013-02-02 16:08:00,46.6,43.6,30.42,South,180,0.0,0.0,89,0.00,,,0.00,LWC V2.11 B50,2013-02-03 00:08:00,
2013-02-02 16:10:00,50.5,46.7,30.24,SE,144,1.8,0.0,87,0.00,,,0.00,WeatherCatV1.15B25,2013-02-03 00:10:00,
2013-02-02 16:13:00,46.6,43.9,30.42,SSE,157,0.0,0.0,90,0.00,,,0.00,LWC V2.11 B50,2013-02-03 00:13:00,
2013-02-02 16:15:00,50.5,46.7,30.24,SE,144,1.8,0.0,87,0.00,,,0.00,WeatherCatV1.15B25,2013-02-03 00:15:00,
2013-02-02 16:18:00,46.2,43.5,30.42,South,180,0.0,0.0,90,0.00,,,0.00,LWC V2.11 B50,2013-02-03 00:18:00,
2013-02-02 16:20:00,50.5,46.7,30.24,SE,144,1.8,0.0,87,0.00,,,0.00,WeatherCatV1.15B25,2013-02-03 00:20:00,
2013-02-02 16:23:00,46.2,43.5,30.43,South,180,0.0,0.0,90,0.00,,,0.00,LWC V2.11 B50,2013-02-03 00:23:00,
2013-02-02 16:25:00,50.5,46.7,30.24,SE,144,1.8,0.0,87,0.00,,,0.00,WeatherCatV1.15B25,2013-02-03 00:25:00,
2013-02-02 16:28:00,46.2,43.5,30.42,South,180,0.0,0.0,90,0.00,,,0.00,LWC V2.11 B50,2013-02-03 00:28:00,
2013-02-02 16:30:00,50.5,46.7,30.24,SE,144,1.8,0.0,87,0.00,,,0.00,WeatherCatV1.15B25,2013-02-03 00:30:00,
2013-02-02 16:33:00,46.0,43.3,30.42,South,180,0.0,0.0,90,0.00,,,0.00,LWC V2.11 B50,2013-02-03 00:33:00,
2013-02-02 16:35:00,50.5,46.7,30.24,SE,144,1.8,0.0,87,0.00,,,0.00,WeatherCatV1.15B25,2013-02-03 00:35:00,
2013-02-02 16:38:00,46.0,43.3,30.42,SSE,157,0.0,0.0,90,0.00,,,0.00,LWC V2.11 B50,2013-02-03 00:38:00,
2013-02-02 16:40:00,50.5,46.7,30.24,SE,144,1.8,0.0,87,0.00,,,0.00,WeatherCatV1.15B25,2013-02-03 00:40:00,
2013-02-02 16:43:00,46.0,43.3,30.42,NNW,337,0.0,0.0,90,0.00,,,0.00,LWC V2.11 B50,2013-02-03 00:43:00,
2013-02-02 16:45:00,50.5,46.7,30.24,SE,144,1.8,0.0,87,0.00,,,0.00,WeatherCatV1.15B25,2013-02-03 00:45:00,
2013-02-02 16:48:00,45.7,43.0,30.42,South,180,0.0,0.0,90,0.00,,,0.00,LWC V2.11 B50,2013-02-03 00:48:00,
2013-02-02 16:50:00,50.5,46.7,30.24,SE,144,1.8,0.0,87,0.00,,,0.00,WeatherCatV1.15B25,2013-02-03 00:50:00,
2013-02-02 16:53:00,45.7,43.0,30.42,WSW,247,0.0,0.0,90,0.00,,,0.00,LWC V2.11 B50,2013-02-03 00:53:00,
2013-02-02 16:55:00,50.5,46.7,30.24,SE,144,1.8,0.0,87,0.00,,,0.00,WeatherCatV1.15B25,2013-02-03 00:55:00,
2013-02-02 16:58:00,45.7,43.0,30.42,SW,225,0.0,0.0,90,0.00,,,0.00,LWC V2.11 B50,2013-02-03 00:58:00,
2013-02-02 17:00:00,50.5,46.7,30.24,SE,144,1.8,0.0,87,0.00,,,0.00,WeatherCatV1.15B25,2013-02-03 01:00:00,
2013-02-02 17:03:00,45.7,43.0,30.42,WSW,247,0.0,0.0,90,0.00,,,0.00,LWC V2.11 B50,2013-02-03 01:03:00,
2013-02-02 17:05:00,50.5,46.7,30.24,SE,144,1.8,0.0,87,0.00,,,0.00,WeatherCatV1.15B25,2013-02-03 01:05:00,
2013-02-02 17:08:00,45.5,42.8,30.42,SW,225,0.0,0.0,90,0.00,,,0.00,LWC V2.11 B50,2013-02-03 01:08:00,
2013-02-02 17:10:00,50.5,46.7,30.24,SE,144,1.8,0.0,87,0.00,,,0.00,WeatherCatV1.15B25,2013-02-03 01:10:00,
2013-02-02 17:13:00,45.5,42.8,30.42,SW,225,0.0,0.0,90,0.00,,,0.00,LWC V2.11 B50,2013-02-03 01:13:00,
2013-02-02 17:15:00,50.5,46.7,30.24,SE,144,1.8,0.0,87,0.00,,,0.00,WeatherCatV1.15B25,2013-02-03 01:15:00,
2013-02-02 17:18:00,45.5,42.8,30.42,SSW,202,0.0,0.0,90,0.00,,,0.00,LWC V2.11 B50,2013-02-03 01:18:00,
2013-02-02 17:20:00,50.5,46.7,30.24,SE,144,1.8,0.0,87,0.00,,,0.00,WeatherCatV1.15B25,2013-02-03 01:20:00,
2013-02-02 17:24:00,45.3,42.6,30.42,ESE,112,0.0,0.0,90,0.00,,,0.00,LWC V2.11 B50,2013-02-03 01:24:00,
2013-02-02 17:25:00,50.5,46.7,30.24,SE,144,1.8,0.0,87,0.00,,,0.00,WeatherCatV1.15B25,2013-02-03 01:25:00,
2013-02-02 17:29:00,45.3,42.6,30.42,SW,225,0.0,0.0,90,0.00,,,0.00,LWC V2.11 B50,2013-02-03 01:29:00,
2013-02-02 17:30:00,50.5,46.7,30.24,SE,144,1.8,0.0,87,0.00,,,0.00,WeatherCatV1.15B25,2013-02-03 01:30:00,
2013-02-02 17:34:00,45.1,42.4,30.42,SSW,202,0.0,0.0,90,0.00,,,0.00,LWC V2.11 B50,2013-02-03 01:34:00,
2013-02-02 17:35:00,50.5,46.7,30.24,SE,144,1.8,0.0,87,0.00,,,0.00,WeatherCatV1.15B25,2013-02-03 01:35:00,
2013-02-02 17:39:00,45.1,42.4,30.42,WSW,247,0.0,0.0,90,0.00,,,0.00,LWC V2.11 B50,2013-02-03 01:39:00,
2013-02-02 17:40:00,50.5,46.7,30.24,SE,144,1.8,0.0,87,0.00,,,0.00,WeatherCatV1.15B25,2013-02-03 01:40:00,
2013-02-02 17:44:00,45.1,42.4,30.42,SSE,157,0.0,0.0,90,0.00,,,0.00,LWC V2.11 B50,2013-02-03 01:44:00,
2013-02-02 17:45:00,50.5,46.7,30.24,SE,144,1.8,0.0,87,0.00,,,0.00,WeatherCatV1.15B25,2013-02-03 01:45:00,
2013-02-02 17:49:00,45.1,42.4,30.42,SW,225,0.0,0.0,90,0.00,,,0.00,LWC V2.11 B50,2013-02-03 01:49:00,
2013-02-02 17:50:00,50.5,46.7,30.24,SE,144,1.8,0.0,87,0.00,,,0.00,WeatherCatV1.15B25,2013-02-03 01:50:00,
2013-02-02 17:54:00,45.0,42.4,30.42,SE,135,0.0,0.0,90,0.00,,,0.00,LWC V2.11 B50,2013-02-03 01:54:00,
2013-02-02 17:55:00,50.5,46.7,30.24,SE,144,1.8,0.0,87,0.00,,,0.00,WeatherCatV1.15B25,2013-02-03 01:55:00,
2013-02-02 17:59:00,45.0,42.3,30.42,SSE,157,0.0,0.0,90,0.00,,,0.00,LWC V2.11 B50,2013-02-03 01:59:00,
2013-02-02 18:00:00,50.5,46.7,30.24,SE,144,1.8,0.0,87,0.00,,,0.00,WeatherCatV1.15B25,2013-02-03 02:00:00,
2013-02-02 18:04:00,45.0,42.3,30.42,SW,225,0.0,0.0,90,0.00,,,0.00,LWC V2.11 B50,2013-02-03 02:04:00,
2013-02-02 18:05:00,50.5,46.7,30.24,SE,144,1.8,0.0,87,0.00,,,0.00,WeatherCatV1.15B25,2013-02-03 02:05:00,
2013-02-02 18:09:00,44.8,42.1,30.42,WSW,247,0.0,0.0,90,0.00,,,0.00,LWC V2.11 B50,2013-02-03 02:09:00,
2013-02-02 18:10:00,50.5,46.7,30.24,SE,144,1.8,0.0,87,0.00,,,0.00,WeatherCatV1.15B25,2013-02-03 02:10:00,
2013-02-02 18:14:00,45.0,42.5,30.42,WSW,247,0.0,0.0,91,0.00,,,0.00,LWC V2.11 B50,2013-02-03 02:14:00,
2013-02-02 18:15:00,50.5,46.7,30.24,SE,144,1.8,0.0,87,0.00,,,0.00,WeatherCatV1.15B25,2013-02-03 02:15:00,
2013-02-02 18:19:00,44.8,42.3,30.42,WSW,247,0.0,0.0,91,0.00,,,0.00,LWC V2.11 B50,2013-02-03 02:19:00,
2013-02-02 18:20:00,50.5,46.7,30.24,SE,144,1.8,0.0,87,0.00,,,0.00,WeatherCatV1.15B25,2013-02-03 02:20:00,
2013-02-02 18:24:00,44.8,42.3,30.42,WSW,247,0.0,0.0,91,0.00,,,0.00,LWC V2.11 B50,2013-02-03 02:24:00,
2013-02-02 18:25:00,50.5,46.7,30.24,SE,144,1.8,0.0,87,0.00,,,0.00,WeatherCatV1.15B25,2013-02-03 02:25:00,
2013-02-02 18:29:00,44.8,42.3,30.42,WSW,247,0.0,0.0,91,0.00,,,0.00,LWC V2.11 B50,2013-02-03 02:29:00,
2013-02-02 18:30:00,50.5,46.7,30.24,SE,144,1.8,0.0,87,0.00,,,0.00,WeatherCatV1.15B25,2013-02-03 02:30:00,
2013-02-02 18:34:00,44.8,42.2,30.42,SW,225,0.0,0.0,91,0.00,,,0.00,LWC V2.11 B50,2013-02-03 02:34:00,
2013-02-02 18:35:00,50.5,46.7,30.24,SE,144,1.8,0.0,87,0.00,,,0.00,WeatherCatV1.15B25,2013-02-03 02:35:00,
2013-02-02 18:40:00,44.6,42.2,30.42,SW,225,0.0,0.0,91,0.00,,,0.00,LWC V2.11 B50,2013-02-03 02:40:00,
2013-02-02 18:45:00,44.6,42.2,30.42,WSW,247,0.0,0.0,91,0.00,,,0.00,LWC V2.11 B50,2013-02-03 02:45:00,
2013-02-02 18:50:00,44.4,42.0,30.42,WSW,247,0.0,0.0,91,0.00,,,0.00,LWC V2.11 B50,2013-02-03 02:50:00,
2013-02-02 18:55:00,44.4,42.0,30.42,WSW,247,0.0,0.0,91,0.00,,,0.00,LWC V2.11 B50,2013-02-03 02:55:00,
2013-02-02 19:00:00,44.4,42.0,30.42,West,270,0.0,0.0,91,0.00,,,0.00,LWC V2.11 B50,2013-02-03 03:00:00,
2013-02-02 19:05:00,44.4,42.0,30.42,West,270,0.0,0.0,91,0.00,,,0.00,LWC V2.11 B50,2013-02-03 03:05:00,
2013-02-02 19:10:00,44.4,42.0,30.42,WSW,247,0.0,0.0,91,0.00,,,0.00,LWC V2.11 B50,2013-02-03 03:10:00,
2013-02-02 19:15:00,44.4,42.0,30.42,WSW,247,0.0,0.0,91,0.00,,,0.00,LWC V2.11 B50,2013-02-03 03:15:00,
2013-02-02 19:20:00,44.2,41.8,30.42,West,270,0.0,0.0,91,0.00,,,0.00,LWC V2.11 B50,2013-02-03 03:20:00,
2013-02-02 19:25:00,44.2,41.8,30.42,WSW,247,0.0,0.0,91,0.00,,,0.00,LWC V2.11 B50,2013-02-03 03:25:00,
2013-02-02 19:30:00,44.2,41.8,30.42,WSW,247,0.0,0.0,91,0.00,,,0.00,LWC V2.11 B50,2013-02-03 03:30:00,
2013-02-02 19:35:00,44.2,41.8,30.42,WSW,247,0.0,0.0,91,0.00,,,0.00,LWC V2.11 B50,2013-02-03 03:35:00,
2013-02-02 19:40:00,44.1,41.6,30.42,SSW,202,0.0,0.0,91,0.00,,,0.00,LWC V2.11 B50,2013-02-03 03:40:00,
2013-02-02 19:45:00,43.9,41.5,30.43,WNW,292,0.0,0.0,91,0.00,,,0.00,LWC V2.11 B50,2013-02-03 03:45:00,
2013-02-02 19:50:00,43.9,41.5,30.43,NNE,22,0.0,0.0,91,0.00,,,0.00,LWC V2.11 B50,2013-02-03 03:50:00,
2013-02-02 19:55:00,50.5,46.7,30.24,SE,144,1.8,0.0,87,0.00,,,0.00,WeatherCatV1.15B25,2013-02-03 03:55:00,
2013-02-02 19:56:00,43.9,41.5,30.43,South,180,0.0,0.0,91,0.00,,,0.00,LWC V2.11 B50,2013-02-03 03:56:00,
2013-02-02 20:00:00,50.5,46.7,30.24,SE,144,1.8,0.0,87,0.00,,,0.00,WeatherCatV1.15B25,2013-02-03 04:00:00,
2013-02-02 20:01:00,43.9,41.5,30.43,West,270,0.0,0.0,91,0.00,,,0.00,LWC V2.11 B50,2013-02-03 04:01:00,
2013-02-02 20:05:00,50.5,46.7,30.24,SE,144,1.8,0.0,87,0.00,,,0.00,WeatherCatV1.15B25,2013-02-03 04:05:00,
2013-02-02 20:06:00,43.9,41.5,30.42,West,270,0.0,0.0,91,0.00,,,0.00,LWC V2.11 B50,2013-02-03 04:06:00,
2013-02-02 20:10:00,50.5,46.7,30.24,SE,144,1.8,0.0,87,0.00,,,0.00,WeatherCatV1.15B25,2013-02-03 04:10:00,
2013-02-02 20:11:00,43.7,41.5,30.43,NE,45,0.0,0.0,92,0.00,,,0.00,LWC V2.11 B50,2013-02-03 04:11:00,
2013-02-02 20:15:00,50.5,46.7,30.24,SE,144,1.8,0.0,87,0.00,,,0.00,WeatherCatV1.15B25,2013-02-03 04:15:00,
2013-02-02 20:16:00,43.7,41.5,30.43,NE,45,0.0,0.0,92,0.00,,,0.00,LWC V2.11 B50,2013-02-03 04:16:00,
2013-02-02 20:20:00,50.5,46.7,30.24,SE,144,1.8,0.0,87,0.00,,,0.00,WeatherCatV1.15B25,2013-02-03 04:20:00,
2013-02-02 20:21:00,43.7,41.5,30.43,SSE,157,0.0,0.0,92,0.00,,,0.00,LWC V2.11 B50,2013-02-03 04:21:00,
2013-02-02 20:25:00,50.5,46.7,30.24,SE,144,1.8,0.0,87,0.00,,,0.00,WeatherCatV1.15B25,2013-02-03 04:25:00,
2013-02-02 20:26:00,43.7,41.5,30.43,South,180,0.0,0.0,92,0.00,,,0.00,LWC V2.11 B50,2013-02-03 04:26:00,
2013-02-02 20:30:00,50.5,46.7,30.24,SE,144,1.8,0.0,87,0.00,,,0.00,WeatherCatV1.15B25,2013-02-03 04:30:00,
2013-02-02 20:31:00,43.5,41.4,30.43,South,180,0.0,0.0,92,0.00,,,0.00,LWC V2.11 B50,2013-02-03 04:31:00,
2013-02-02 20:35:00,50.5,46.7,30.24,SE,144,1.8,0.0,87,0.00,,,0.00,WeatherCatV1.15B25,2013-02-03 04:35:00,
2013-02-02 20:36:00,43.5,41.4,30.43,SSW,202,0.0,0.0,92,0.00,,,0.00,LWC V2.11 B50,2013-02-03 04:36:00,
2013-02-02 20:40:00,50.5,46.7,30.24,SE,144,1.8,0.0,87,0.00,,,0.00,WeatherCatV1.15B25,2013-02-03 04:40:00,
2013-02-02 20:41:00,43.5,41.4,30.43,South,180,0.0,0.0,92,0.00,,,0.00,LWC V2.11 B50,2013-02-03 04:41:00,
2013-02-02 20:45:00,50.5,46.7,30.24,SE,144,1.8,0.0,87,0.00,,,0.00,WeatherCatV1.15B25,2013-02-03 04:45:00,
2013-02-02 20:46:00,43.5,41.4,30.43,South,180,0.0,0.0,92,0.00,,,0.00,LWC V2.11 B50,2013-02-03 04:46:00,
2013-02-02 20:50:00,50.5,46.7,30.24,SE,144,1.8,0.0,87,0.00,,,0.00,WeatherCatV1.15B25,2013-02-03 04:50:00,
2013-02-02 20:51:00,43.5,41.4,30.43,SSE,157,0.0,0.0,92,0.00,,,0.00,LWC V2.11 B50,2013-02-03 04:51:00,
2013-02-02 20:55:00,50.5,46.7,30.24,SE,144,1.8,0.0,87,0.00,,,0.00,WeatherCatV1.15B25,2013-02-03 04:55:00,
2013-02-02 20:56:00,43.3,41.2,30.43,SSW,202,0.0,0.0,92,0.00,,,0.00,LWC V2.11 B50,2013-02-03 04:56:00,
2013-02-02 21:00:00,43.3,41.2,30.43,West,270,0.0,0.0,92,0.00,,,0.00,LWC V2.11 B50,2013-02-03 05:00:00,
2013-02-02 21:05:00,43.3,41.2,30.42,SSE,157,0.0,0.0,92,0.00,,,0.00,LWC V2.11 B50,2013-02-03 05:05:00,
2013-02-02 21:10:00,43.3,40.9,30.42,SSE,157,0.0,0.0,91,0.00,,,0.00,LWC V2.11 B50,2013-02-03 05:10:00,
2013-02-02 21:15:00,43.3,40.9,30.42,SSE,157,0.0,0.0,91,0.00,,,0.00,LWC V2.11 B50,2013-02-03 05:15:00,
2013-02-02 21:20:00,43.2,40.7,30.43,South,180,0.0,0.0,91,0.00,,,0.00,LWC V2.11 B50,2013-02-03 05:20:00,
2013-02-02 21:25:00,43.3,40.9,30.43,SSW,202,0.0,0.0,91,0.00,,,0.00,LWC V2.11 B50,2013-02-03 05:25:00,
2013-02-02 21:30:00,43.2,40.7,30.43,SSE,157,0.0,0.0,91,0.00,,,0.00,LWC V2.11 B50,2013-02-03 05:30:00,
2013-02-02 21:35:00,43.2,40.7,30.43,SSW,202,0.0,0.0,91,0.00,,,0.00,LWC V2.11 B50,2013-02-03 05:35:00,
2013-02-02 21:40:00,43.2,40.7,30.43,WSW,247,0.0,0.0,91,0.00,,,0.00,LWC V2.11 B50,2013-02-03 05:40:00,
2013-02-02 21:45:00,43.2,40.7,30.42,ESE,112,0.0,0.0,91,0.00,,,0.00,LWC V2.11 B50,2013-02-03 05:45:00,
2013-02-02 21:50:00,43.0,40.5,30.42,SSW,202,0.0,0.0,91,0.00,,,0.00,LWC V2.11 B50,2013-02-03 05:50:00,
2013-02-02 21:55:00,50.5,46.7,30.24,SE,144,1.8,0.0,87,0.00,,,0.00,WeatherCatV1.15B25,2013-02-03 05:55:00,
2013-02-02 21:56:00,43.0,40.5,30.42,SW,225,0.0,0.0,91,0.00,,,0.00,LWC V2.11 B50,2013-02-03 05:56:00,
2013-02-02 22:00:00,50.5,46.7,30.24,SE,144,1.8,0.0,87,0.00,,,0.00,WeatherCatV1.15B25,2013-02-03 06:00:00,
2013-02-02 22:01:00,43.0,40.5,30.43,South,180,0.0,0.0,91,0.00,,,0.00,LWC V2.11 B50,2013-02-03 06:01:00,
2013-02-02 22:05:00,50.5,46.7,30.24,SE,144,1.8,0.0,87,0.00,,,0.00,WeatherCatV1.15B25,2013-02-03 06:05:00,
2013-02-02 22:06:00,43.0,40.5,30.42,SSW,202,0.0,0.0,91,0.00,,,0.00,LWC V2.11 B50,2013-02-03 06:06:00,
2013-02-02 22:10:00,50.5,46.7,30.24,SE,144,1.8,0.0,87,0.00,,,0.00,WeatherCatV1.15B25,2013-02-03 06:10:00,
2013-02-02 22:11:00,43.0,40.8,30.42,WSW,247,0.0,0.0,92,0.00,,,0.00,LWC V2.11 B50,2013-02-03 06:11:00,
2013-02-02 22:15:00,50.5,46.7,30.24,SE,144,1.8,0.0,87,0.00,,,0.00,WeatherCatV1.15B25,2013-02-03 06:15:00,
2013-02-02 22:16:00,42.6,40.5,30.43,SSE,157,0.0,0.0,92,0.00,,,0.00,LWC V2.11 B50,2013-02-03 06:16:00,
2013-02-02 22:20:00,50.5,46.7,30.24,SE,144,1.8,0.0,87,0.00,,,0.00,WeatherCatV1.15B25,2013-02-03 06:20:00,
2013-02-02 22:21:00,42.6,40.5,30.43,SW,225,0.0,0.0,92,0.00,,,0.00,LWC V2.11 B50,2013-02-03 06:21:00,
2013-02-02 22:25:00,50.5,46.7,30.24,SE,144,1.8,0.0,87,0.00,,,0.00,WeatherCatV1.15B25,2013-02-03 06:25:00,
2013-02-02 22:26:00,42.6,40.5,30.43,SW,225,0.0,0.0,92,0.00,,,0.00,LWC V2.11 B50,2013-02-03 06:26:00,
2013-02-02 22:30:00,50.5,46.7,30.24,SE,144,1.8,0.0,87,0.00,,,0.00,WeatherCatV1.15B25,2013-02-03 06:30:00,
2013-02-02 22:31:00,42.6,40.5,30.43,SSW,202,0.0,0.0,92,0.00,,,0.00,LWC V2.11 B50,2013-02-03 06:31:00,
2013-02-02 22:35:00,50.5,46.7,30.24,SE,144,1.8,0.0,87,0.00,,,0.00,WeatherCatV1.15B25,2013-02-03 06:35:00,
2013-02-02 22:36:00,42.6,40.5,30.43,SW,225,0.0,0.0,92,0.00,,,0.00,LWC V2.11 B50,2013-02-03 06:36:00,
2013-02-02 22:40:00,50.5,46.7,30.24,SE,144,1.8,0.0,87,0.00,,,0.00,WeatherCatV1.15B25,2013-02-03 06:40:00,
2013-02-02 22:41:00,42.6,40.5,30.43,SSW,202,0.0,0.0,92,0.00,,,0.00,LWC V2.11 B50,2013-02-03 06:41:00,
2013-02-02 22:45:00,50.5,46.7,30.24,SE,144,1.8,0.0,87,0.00,,,0.00,WeatherCatV1.15B25,2013-02-03 06:45:00,
2013-02-02 22:46:00,42.6,40.5,30.44,SW,225,0.0,0.0,92,0.00,,,0.00,LWC V2.11 B50,2013-02-03 06:46:00,
2013-02-02 22:50:00,50.5,46.7,30.24,SE,144,1.8,0.0,87,0.00,,,0.00,WeatherCatV1.15B25,2013-02-03 06:50:00,
2013-02-02 22:51:00,42.6,40.5,30.43,WSW,247,0.0,0.0,92,0.00,,,0.00,LWC V2.11 B50,2013-02-03 06:51:00,
2013-02-02 22:55:00,50.5,46.7,30.24,SE,144,1.8,0.0,87,0.00,,,0.00,WeatherCatV1.15B25,2013-02-03 06:55:00,
2013-02-02 22:56:00,42.4,40.3,30.44,SW,225,0.0,0.0,92,0.00,,,0.00,LWC V2.11 B50,2013-02-03 06:56:00,
2013-02-02 23:00:00,50.5,46.7,30.24,SE,144,1.8,0.0,87,0.00,,,0.00,WeatherCatV1.15B25,2013-02-03 07:00:00,
2013-02-02 23:01:00,42.4,40.3,30.44,SW,225,0.0,0.0,92,0.00,,,0.00,LWC V2.11 B50,2013-02-03 07:01:00,
2013-02-02 23:05:00,50.5,46.7,30.24,SE,144,1.8,0.0,87,0.00,,,0.00,WeatherCatV1.15B25,2013-02-03 07:05:00,
2013-02-02 23:06:00,42.4,40.3,30.45,West,270,0.0,0.0,92,0.00,,,0.00,LWC V2.11 B50,2013-02-03 07:06:00,
2013-02-02 23:10:00,50.5,46.7,30.24,SE,144,1.8,0.0,87,0.00,,,0.00,WeatherCatV1.15B25,2013-02-03 07:10:00,
2013-02-02 23:12:00,42.4,40.3,30.44,West,270,0.0,0.0,92,0.00,,,0.00,LWC V2.11 B50,2013-02-03 07:12:00,
2013-02-02 23:15:00,50.5,46.7,30.24,SE,144,1.8,0.0,87,0.00,,,0.00,WeatherCatV1.15B25,2013-02-03 07:15:00,
2013-02-02 23:17:00,42.4,40.3,30.45,West,270,0.0,0.0,92,0.00,,,0.00,LWC V2.11 B50,2013-02-03 07:17:00,
2013-02-02 23:20:00,50.5,46.7,30.24,SE,144,1.8,0.0,87,0.00,,,0.00,WeatherCatV1.15B25,2013-02-03 07:20:00,
2013-02-02 23:22:00,42.4,40.3,30.45,West,270,0.0,0.0,92,0.00,,,0.00,LWC V2.11 B50,2013-02-03 07:22:00,
2013-02-02 23:25:00,50.5,46.7,30.24,SE,144,1.8,0.0,87,0.00,,,0.00,WeatherCatV1.15B25,2013-02-03 07:25:00,
2013-02-02 23:27:00,42.4,40.3,30.45,West,270,0.0,0.0,92,0.00,,,0.00,LWC V2.11 B50,2013-02-03 07:27:00,
2013-02-02 23:30:00,42.6,40.5,30.44,SW,228,0.0,0.0,92,0.00,,,0.00,LWC V2.11 B50,2013-02-03 07:30:00,
2013-02-02 23:35:00,50.5,46.7,30.24,SE,144,1.7,0.0,87,0.00,,,0.00,WeatherCatV1.15B25,2013-02-03 07:35:00,
2013-02-02 23:40:00,42.4,41.1,30.49,NNE,22,0.0,0.0,95,0.00,,,0.00,LWC V2.11 B50,2013-02-03 07:40:00,
2013-02-02 23:45:00,50.5,46.7,30.24,SE,144,1.7,0.0,87,0.00,,,0.00,WeatherCatV1.15B25,2013-02-03 07:45:00,
2013-02-02 23:50:00,42.4,41.1,30.49,NNE,22,0.0,0.0,95,0.00,,,0.00,LWC V2.11 B50,2013-02-03 07:50:00,
2013-02-02 23:55:00,50.5,46.7,30.24,SE,144,1.7,0.0,87,0.00,,,0.00,WeatherCatV1.15B25,2013-02-03 07:55:00,